TimePDT,TemperatureF,Dew PointF,Humidity,Sea Level PressureIn,VisibilityMPH,Wind Direction,Wind SpeedMPH,Gust SpeedMPH,PrecipitationIn,Events,Conditions,WindDirDegrees,DateUTC
12:56 AM,52.0,46.9,83,30.15,10.0,NNW,3.5,-,N/A,,Clear,330,2013-03-15 07:56:00
1:56 AM,52.0,46.0,80,30.15,10.0,Calm,Calm,-,N/A,,Clear,0,2013-03-15 08:56:00
2:56 AM,50.0,46.9,89,30.16,10.0,North,3.5,-,N/A,,Clear,10,2013-03-15 09:56:00
3:56 AM,50.0,46.0,86,30.14,10.0,Calm,Calm,-,N/A,,Clear,0,2013-03-15 10:56:00
4:56 AM,50.0,45.0,83,30.14,10.0,Calm,Calm,-,N/A,,Clear,0,2013-03-15 11:56:00
5:56 AM,48.9,44.1,83,30.14,10.0,Calm,Calm,-,N/A,,Clear,0,2013-03-15 12:56:00
6:56 AM,48.9,45.0,86,30.13,10.0,Calm,Calm,-,N/A,,Clear,0,2013-03-15 13:56:00
7:56 AM,50.0,46.0,86,30.14,10.0,Calm,Calm,-,0.01,,Clear,0,2013-03-15 14:56:00
8:56 AM,53.1,48.0,83,30.14,10.0,Calm,Calm,-,N/A,,Clear,0,2013-03-15 15:56:00
9:56 AM,55.9,48.9,77,30.14,10.0,Calm,Calm,-,N/A,,Clear,0,2013-03-15 16:56:00
10:56 AM,57.9,50.0,75,30.15,10.0,North,3.5,-,N/A,,Clear,360,2013-03-15 17:56:00
11:56 AM,60.1,48.9,67,30.15,10.0,North,3.5,-,N/A,,Clear,10,2013-03-15 18:56:00
12:56 PM,64.0,46.9,54,30.12,10.0,North,3.5,-,N/A,,Clear,10,2013-03-15 19:56:00
1:56 PM,66.9,44.1,44,30.10,10.0,Calm,Calm,-,N/A,,Clear,0,2013-03-15 20:56:00
2:56 PM,68.0,42.1,39,30.10,10.0,North,10.4,-,N/A,,Clear,350,2013-03-15 21:56:00
3:56 PM,66.0,46.9,50,30.09,10.0,North,12.7,-,N/A,,Clear,350,2013-03-15 22:56:00
4:56 PM,64.0,48.9,58,30.09,10.0,NNW,9.2,-,N/A,,Clear,340,2013-03-15 23:56:00
5:56 PM,61.0,52.0,72,30.09,10.0,NNW,12.7,-,N/A,,Clear,340,2013-03-16 00:56:00
6:56 PM,59.0,51.1,75,30.09,10.0,North,6.9,-,N/A,,Clear,350,2013-03-16 01:56:00
7:56 PM,57.0,51.1,81,30.09,10.0,NNW,8.1,-,N/A,,Clear,340,2013-03-16 02:56:00
8:56 PM,55.9,50.0,80,30.08,10.0,NW,3.5,-,N/A,,Clear,320,2013-03-16 03:56:00
10:56 PM,55.0,51.1,86,30.11,10.0,NNW,3.5,-,N/A,,Clear,340,2013-03-16 05:56:00
11:56 PM,53.1,48.9,86,30.12,10.0,NNW,6.9,-,N/A,,Clear,340,2013-03-16 06:56:00